K1JO Weather Reports


time (UTC)temp
C
wind
direction
speed
KPH
gust
KPH
rain 1hr
cm
rain 24hr
cm
rain mn
cm
humidity
%
barometer
mb
20260505230857 15 193 1.6 11.3 0.00 0.00 0.00 74 1001.4
20260505230354 15 182 8.0 11.3 0.00 0.00 0.00 74 1001.1
20260505225850 15 159 6.4 20.9 0.00 0.00 0.00 73 1001.1
20260505225348 15 263 1.6 16.1 0.00 0.00 0.00 72 1001.2
20260505224843 15 68 1.6 3.2 0.00 0.00 0.00 72 1001.0
20260505224341 16 33 3.2 6.4 0.00 0.00 0.00 71 1000.8
20260505223838 16 216 3.2 6.4 0.00 0.00 0.00 71 1000.5
20260505223335 16 82 3.2 12.9 0.00 0.00 0.00 71 1000.5
20260505222830 16 243 6.4 16.1 0.00 0.00 0.00 71 1000.7
20260505222326 16 209 11.3 27.4 0.00 0.00 0.00 71 1000.7
20260505221824 16 148 4.8 16.1 0.00 0.00 0.00 70 1000.4
20260505221320 16 178 6.4 14.5 0.00 0.00 0.00 70 1000.5
20260505220818 16 182 9.7 17.7 0.00 0.00 0.00 70 1000.2
20260505220314 16 152 9.7 12.9 0.00 0.00 0.00 70 1000.4
20260505215813 16 2 6.4 20.9 0.00 0.00 0.00 69 1000.4
20260505215310 16 244 6.4 14.5 0.00 0.00 0.00 70 1000.3
20260505214808 16 169 11.3 20.9 0.00 0.00 0.00 69 1000.5
20260505214305 17 171 8.0 12.9 0.00 0.00 0.00 69 1000.3
20260505213802 17 333 3.2 6.4 0.00 0.00 0.00 69 1000.5
20260505213300 17 183 14.5 22.5 0.00 0.00 0.00 68 1000.3
20260505212755 17 11 4.8 24.1 0.00 0.00 0.00 68 1000.4
20260505212253 18 170 8.0 17.7 0.00 0.00 0.00 67 1000.3
20260505211749 18 180 4.8 14.5 0.00 0.00 0.00 67 1000.3
20260505211247 18 148 8.0 9.7 0.00 0.00 0.00 67 1000.2
20260505210743 18 188 6.4 11.3 0.00 0.00 0.00 67 1000.4
20260505210240 18 338 1.6 16.1 0.00 0.00 0.00 65 1000.2
20260505205737 18 204 11.3 20.9 0.00 0.00 0.00 65 1000.2
20260505205236 19 192 6.4 16.1 0.00 0.00 0.00 63 1000.2
20260505204732 19 148 4.8 12.9 0.00 0.00 0.00 63 1000.3
20260505204230 20 133 6.4 22.5 0.00 0.00 0.00 62 1000.1
20260505203726 20 179 9.7 11.3 0.00 0.00 0.00 61 1000.3
20260505203224 20 226 9.7 14.5 0.00 0.00 0.00 62 1000.3
20260505202719 20 148 6.4 12.9 0.00 0.00 0.00 62 1000.1
20260505202215 20 290 3.2 20.9 0.00 0.00 0.00 62 1000.2
20260505201712 20 154 19.3 24.1 0.00 0.00 0.00 61 1000.4
20260505201210 20 148 8.0 14.5 0.00 0.00 0.00 61 1000.4
20260505200708 21 239 8.0 11.3 0.00 0.00 0.00 59 1000.6
20260505200204 21 358 6.4 12.9 0.00 0.00 0.00 60 1000.7
20260505195700 21 300 14.5 20.9 0.00 0.00 0.00 59 1000.5
20260505195158 20 297 3.2 16.1 0.00 0.00 0.00 62 1000.7
20260505194655 20 277 6.4 16.1 0.00 0.00 0.00 61 1000.8
20260505194151 20 168 8.0 11.3 0.00 0.00 0.00 61 1000.9
20260505193648 21 261 14.5 24.1 0.00 0.00 0.00 58 1000.8
20260505193145 21 333 1.6 11.3 0.00 0.00 0.00 59 1000.7
20260505192643 20 157 14.5 20.9 0.00 0.00 0.00 60 1000.7
20260505192141 21 179 4.8 16.1 0.00 0.00 0.00 59 1000.8
20260505191639 20 260 11.3 25.7 0.00 0.00 0.00 59 1000.9
20260505191137 21 346 3.2 14.5 0.00 0.00 0.00 59 1000.9
20260505190632 20 178 8.0 16.1 0.00 0.00 0.00 60 1001.0
20260505190127 21 18 3.2 17.7 0.00 0.00 0.00 59 1001.0
20260505185624 21 191 4.8 22.5 0.00 0.00 0.00 58 1001.0
20260505185120 21 217 9.7 14.5 0.00 0.00 0.00 59 1000.9
20260505184617 21 244 6.4 16.1 0.00 0.00 0.00 58 1000.8
20260505184114 21 185 9.7 17.7 0.00 0.00 0.00 56 1000.7
20260505183611 21 212 11.3 17.7 0.00 0.00 0.00 58 1001.1
20260505183109 21 160 4.8 16.1 0.00 0.00 0.00 57 1001.0
20260505182604 21 149 4.8 9.7 0.00 0.00 0.00 57 1001.2
20260505182101 21 290 4.8 14.5 0.00 0.00 0.00 58 1001.1
20260505181558 21 282 4.8 9.7 0.00 0.00 0.00 60 1001.1
20260505181055 21 292 6.4 17.7 0.00 0.00 0.00 58 1001.4
20260505180550 20 294 3.2 12.9 0.00 0.00 0.00 59 1001.5
20260505180049 20 202 11.3 22.5 0.00 0.00 0.00 59 1001.5
20260505175544 20 224 9.7 20.9 0.00 0.00 0.00 58 1001.5
20260505175041 20 147 17.7 20.9 0.00 0.00 0.00 59 1001.6
20260505174537 20 134 4.8 24.1 0.00 0.00 0.00 58 1001.9
20260505174033 21 298 6.4 16.1 0.00 0.00 0.00 61 1001.7
20260505173530 20 248 6.4 14.5 0.00 0.00 0.00 58 1001.9
20260505173027 20 195 4.8 11.3 0.00 0.00 0.00 59 1001.7
20260505172525 21 37 6.4 22.5 0.00 0.00 0.00 57 1001.8
20260505172021 20 234 17.7 22.5 0.00 0.00 0.00 60 1002.0
20260505171517 20 210 9.7 20.9 0.00 0.00 0.00 58 1001.9
20260505171014 20 140 9.7 22.5 0.00 0.00 0.00 59 1002.0
20260505170510 20 156 12.9 16.1 0.00 0.00 0.00 57 1002.1
20260505170006 21 163 6.4 22.5 0.00 0.00 0.00 59 1002.2
20260505165502 21 322 3.2 9.7 0.00 0.00 0.00 57 1002.2
20260505164957 21 221 14.5 20.9 0.00 0.00 0.00 55 1002.1
20260505164454 21 171 1.6 12.9 0.00 0.00 0.00 58 1002.2
20260505163952 21 97 3.2 12.9 0.00 0.00 0.00 58 1002.5
20260505163450 21 121 6.4 17.7 0.00 0.00 0.00 57 1002.5
20260505162950 21 143 9.7 20.9 0.00 0.00 0.00 58 1002.7
20260505162445 21 79 9.7 16.1 0.00 0.00 0.00 56 1002.6
20260505161942 21 269 6.4 16.1 0.00 0.00 0.00 57 1002.9
20260505161438 21 50 4.8 11.3 0.00 0.00 0.00 58 1002.9
20260505160936 21 331 6.4 14.5 0.00 0.00 0.00 58 1003.0
20260505160434 20 182 9.7 14.5 0.00 0.00 0.00 58 1002.9
20260505152910 20 251 3.2 6.4 0.00 0.00 0.00 60 1003.2
20260505152408 20 109 3.2 14.5 0.00 0.00 0.00 58 1003.1
20260505151907 20 348 9.7 22.5 0.00 0.00 0.00 58 1003.1
20260505151404 20 157 4.8 6.4 0.00 0.00 0.00 59 1003.1
20260505150901 20 299 6.4 11.3 0.00 0.00 0.00 56 1003.0
20260505150353 20 287 6.4 16.1 0.00 0.00 0.00 56 1003.1
20260505140317 19 257 6.4 9.7 0.00 0.00 0.00 56 1003.3
20260505130240 17 267 1.6 3.2 0.00 0.00 0.00 60 1003.7
20260505124731 17 189 4.8 6.4 0.00 0.00 0.00 62 1004.2
20260505124227 16 359 3.2 3.2 0.00 0.00 0.00 63 1003.9
20260505123723 16 220 4.8 6.4 0.00 0.00 0.00 65 1004.1
20260505123220 15 322 3.2 3.2 0.00 0.00 0.00 66 1004.0
20260505122716 15 215 6.4 9.7 0.00 0.00 0.00 68 1004.2
20260505122214 15 316 3.2 3.2 0.00 0.00 0.00 68 1003.9
20260505121710 15 295 6.4 12.9 0.00 0.00 0.00 67 1004.0
20260505121207 15 75 1.6 4.8 0.00 0.00 0.00 71 1003.9
20260505120703 15 141 6.4 9.7 0.00 0.00 0.00 68 1004.3
20260505120200 15 110 1.6 6.4 0.00 0.00 0.00 72 1004.3
20260505115659 15 182 1.6 1.6 0.00 0.00 0.00 71 1004.2
20260505115157 14 199 4.8 6.4 0.00 0.00 0.00 71 1004.4
20260505114654 13 231 6.4 6.4 0.00 0.00 0.00 71 1004.5
20260505114150 13 125 3.2 3.2 0.00 0.00 0.00 73 1004.4
20260505113646 13 194 8.0 9.7 0.00 0.00 0.00 74 1004.3
20260505113143 13 177 4.8 11.3 0.00 0.00 0.00 74 1004.2
20260505112640 13 217 1.6 3.2 0.00 0.00 0.00 75 1004.1
20260505112138 12 114 3.2 4.8 0.00 0.00 0.00 77 1004.1
20260505111631 12 282 4.8 6.4 0.00 0.00 0.00 77 1004.2
20260505111127 11 282 1.6 3.2 0.00 0.00 0.00 81 1004.2
20260505110624 11 68 0.0 3.2 0.00 0.00 0.00 84 1004.2
20260505110121 10 344 0.0 1.6 0.00 0.00 0.00 93 1004.0
20260505102057 6 343 0.0 0.0 0.00 0.00 0.00 99 1004.1
20260505101555 5 352 0.0 1.6 0.00 0.00 0.00 99 1004.0
20260505101051 5 339 0.0 0.0 0.00 0.00 0.00 99 1004.2
20260505100548 5 337 0.0 0.0 0.00 0.00 0.00 99 1004.3
20260505100044 5 337 0.0 0.0 0.00 0.00 0.00 99 1004.1
20260505095541 5 336 0.0 0.0 0.00 0.00 0.00 99 1004.1
20260505095037 5 335 0.0 0.0 0.00 0.00 0.00 99 1004.1
20260505094534 4 338 0.0 0.0 0.00 0.00 0.00 99 1004.1
20260505094030 4 340 0.0 0.0 0.00 0.00 0.00 99 1004.0
20260505093526 4 336 0.0 0.0 0.00 0.00 0.00 99 1003.9
20260505093024 4 342 0.0 0.0 0.00 0.00 0.00 99 1003.8
20260505092521 4 319 1.6 1.6 0.00 0.00 0.00 99 1003.7
20260505092020 3 349 0.0 0.0 0.00 0.00 0.00 99 1003.7
20260505091516 3 328 0.0 0.0 0.00 0.00 0.00 99 1003.9
20260505091014 3 339 0.0 0.0 0.00 0.00 0.00 99 1003.9
20260505090512 3 342 0.0 0.0 0.00 0.00 0.00 99 1004.0
20260505090009 3 342 0.0 0.0 0.00 0.00 0.00 99 1004.0
20260505085508 3 333 0.0 0.0 0.00 0.00 0.00 99 1004.1
20260505085005 3 340 0.0 0.0 0.00 0.00 0.00 99 1004.0
20260505084503 3 340 0.0 0.0 0.00 0.00 0.00 99 1003.9
20260505084001 3 303 0.0 0.0 0.00 0.00 0.00 99 1004.0
20260505083458 4 339 0.0 0.0 0.00 0.00 0.00 99 1004.0
20260505082954 3 316 1.6 3.2 0.00 0.00 0.00 99 1004.1
20260505082450 3 341 0.0 0.0 0.00 0.00 0.00 99 1004.1
20260505081947 3 341 0.0 0.0 0.00 0.00 0.00 99 1004.2
20260505081444 3 342 0.0 0.0 0.00 0.00 0.00 99 1004.1
20260505080940 2 337 0.0 0.0 0.00 0.00 0.00 99 1004.0
20260505080436 2 339 0.0 0.0 0.00 0.00 0.00 99 1003.9
20260505075932 2 338 0.0 0.0 0.00 0.00 0.00 99 1004.0
20260505075429 2 338 0.0 0.0 0.00 0.00 0.00 99 1004.1
20260505074926 2 338 0.0 0.0 0.00 0.00 0.00 99 1003.9
20260505074424 2 338 0.0 0.0 0.00 0.00 0.00 99 1004.0
20260505073921 2 337 0.0 0.0 0.00 0.00 0.00 99 1004.1
20260505073419 2 337 0.0 0.0 0.00 0.00 0.00 99 1003.9
20260505072915 2 337 0.0 0.0 0.00 0.00 0.00 99 1004.0
20260505072411 2 340 0.0 0.0 0.00 0.00 0.00 99 1004.2
20260505071908 2 344 0.0 0.0 0.00 0.00 0.00 99 1004.1
20260505071404 2 344 0.0 0.0 0.00 0.00 0.00 99 1004.2
20260505070902 2 344 0.0 0.0 0.00 0.00 0.00 99 1004.1
20260505070358 2 344 0.0 0.0 0.00 0.00 0.00 99 1004.1
20260505065854 2 344 0.0 0.0 0.00 0.00 0.00 99 1004.0
20260505065351 2 344 0.0 0.0 0.00 0.00 0.00 99 1004.0
20260505064848 2 346 0.0 0.0 0.00 0.00 0.00 99 1004.0
20260505064345 2 344 0.0 0.0 0.00 0.00 0.00 99 1004.1
20260505063843 2 344 0.0 0.0 0.00 0.00 0.00 99 1004.0
20260505063338 2 344 0.0 0.0 0.00 0.00 0.00 99 1003.9
20260505062835 2 345 0.0 0.0 0.00 0.00 0.00 99 1003.9
20260505062333 2 344 0.0 0.0 0.00 0.00 0.00 99 1003.9
20260505061829 2 347 0.0 0.0 0.00 0.00 0.00 99 1003.9
20260505061328 2 346 0.0 0.0 0.00 0.00 0.00 99 1004.0
20260505060825 2 347 0.0 0.0 0.00 0.00 0.00 99 1004.0
20260505060322 2 345 0.0 0.0 0.00 0.00 0.00 99 1003.9
20260505055817 2 344 0.0 0.0 0.00 0.00 0.00 99 1003.9
20260505055313 2 344 0.0 0.0 0.00 0.00 0.00 99 1003.9
20260505054811 3 350 0.0 0.0 0.00 0.00 0.00 99 1004.0
20260505054308 3 345 0.0 0.0 0.00 0.00 0.00 99 1004.1
20260505053807 3 345 0.0 0.0 0.00 0.00 0.00 99 1003.9
20260505053303 3 345 0.0 0.0 0.00 0.00 0.00 99 1004.0
20260505052800 3 345 0.0 0.0 0.00 0.00 0.00 99 1003.8
20260505052257 3 349 0.0 0.0 0.00 0.00 0.00 99 1003.6
20260505051754 3 342 0.0 0.0 0.00 0.00 0.00 99 1003.7
20260505051252 3 342 0.0 0.0 0.00 0.00 0.00 99 1003.7
20260505050749 3 346 0.0 0.0 0.00 0.00 0.00 99 1003.6
20260505050248 3 347 0.0 0.0 0.00 0.00 0.00 99 1003.6
20260505041718 4 346 0.0 0.0 0.00 0.00 0.00 99 1003.8
20260505041215 4 341 0.0 0.0 0.00 0.00 0.00 99 1003.6
20260505040712 5 335 0.0 0.0 0.00 0.00 0.00 99 1003.5
20260505040209 5 349 0.0 0.0 0.00 0.00 0.00 99 1003.8
20260505035706 5 346 0.0 0.0 0.00 0.00 0.00 99 1003.5
20260505035203 5 349 0.0 0.0 0.00 0.00 0.00 99 1003.8
20260505034659 5 351 0.0 0.0 0.00 0.00 0.00 99 1003.7
20260505034156 5 349 0.0 0.0 0.00 0.00 0.00 99 1003.7
20260505033652 5 351 0.0 0.0 0.00 0.00 0.00 98 1003.8
20260505033151 6 351 0.0 0.0 0.00 0.00 0.00 99 1003.5
20260505032648 5 351 0.0 0.0 0.00 0.00 0.00 98 1003.6
20260505032144 5 342 0.0 0.0 0.00 0.00 0.00 98 1003.5
20260505031642 5 339 0.0 0.0 0.00 0.00 0.00 98 1003.4
20260505031138 6 350 0.0 0.0 0.00 0.00 0.00 98 1003.4
20260505030635 5 349 0.0 0.0 0.00 0.00 0.00 98 1003.7
20260505030131 6 348 0.0 0.0 0.00 0.00 0.00 98 1003.6
20260505025627 6 348 0.0 0.0 0.00 0.00 0.00 97 1003.9
20260505025126 6 348 0.0 0.0 0.00 0.00 0.00 97 1003.8
20260505024623 6 348 0.0 0.0 0.00 0.00 0.00 97 1003.8
20260505024120 6 337 0.0 0.0 0.00 0.00 0.00 96 1004.0
20260505023617 7 348 0.0 0.0 0.00 0.00 0.00 96 1003.7
20260505023115 7 348 0.0 0.0 0.00 0.00 0.00 95 1003.7
20260505022612 7 350 0.0 0.0 0.00 0.00 0.00 95 1003.9
20260505022109 7 349 0.0 0.0 0.00 0.00 0.00 95 1004.0
20260505021605 7 345 0.0 0.0 0.00 0.00 0.00 95 1003.7
20260505021102 7 345 0.0 0.0 0.00 0.00 0.00 95 1003.9
20260505020602 7 344 0.0 0.0 0.00 0.00 0.00 95 1004.0
20260505020059 7 345 0.0 0.0 0.00 0.00 0.00 95 1003.9
20260505015556 7 340 0.0 0.0 0.00 0.00 0.00 95 1003.9
20260505015053 7 342 0.0 0.0 0.00 0.00 0.00 95 1003.9
20260505014550 7 346 0.0 0.0 0.00 0.00 0.00 95 1003.8
20260505014047 8 349 0.0 0.0 0.00 0.00 0.00 94 1003.9
20260505013544 8 347 0.0 0.0 0.00 0.00 0.00 94 1003.6
20260505013041 8 337 0.0 0.0 0.00 0.00 0.00 94 1003.6
20260505012539 8 342 0.0 0.0 0.00 0.00 0.00 93 1003.8
20260505012036 7 1 0.0 0.0 0.00 0.00 0.00 94 1003.7
20260505011537 7 345 0.0 0.0 0.00 0.00 0.00 96 1003.8
20260505011034 7 348 0.0 0.0 0.00 0.00 0.00 96 1003.6
20260505010529 7 339 0.0 0.0 0.00 0.00 0.00 95 1003.5
20260505010026 7 338 0.0 0.0 0.00 0.00 0.00 95 1003.4
20260505005523 7 344 0.0 0.0 0.00 0.00 0.00 94 1003.0
20260505005021 8 344 0.0 0.0 0.00 0.00 0.00 94 1003.1
20260505004517 8 343 0.0 0.0 0.00 0.00 0.00 94 1002.8
20260505004014 8 352 0.0 0.0 0.00 0.00 0.00 93 1002.9
20260505003511 8 353 0.0 0.0 0.00 0.00 0.00 93 1002.7
20260505003008 8 348 0.0 0.0 0.00 0.00 0.00 93 1002.7
20260505002503 8 348 0.0 0.0 0.00 0.00 0.00 92 1002.6
20260505002002 8 348 0.0 0.0 0.00 0.00 0.00 91 1002.6
20260505001459 9 346 0.0 0.0 0.00 0.00 0.00 91 1002.5
20260505000956 9 346 0.0 0.0 0.00 0.00 0.00 90 1002.6
20260505000454 9 344 0.0 0.0 0.00 0.00 0.00 90 1002.7
20260504235951 10 344 0.0 0.0 0.00 0.00 0.00 89 1002.6
20260504235448 10 342 0.0 0.0 0.00 0.00 0.00 87 1002.6
20260504234944 10 342 0.0 0.0 0.00 0.00 0.00 87 1002.5
20260504234442 10 348 0.0 0.0 0.00 0.00 0.00 85 1002.2
20260504233938 10 348 0.0 0.0 0.00 0.00 0.00 85 1002.3
20260504233434 10 348 0.0 0.0 0.00 0.00 0.00 84 1002.1
20260504232931 11 348 0.0 0.0 0.00 0.00 0.00 82 1002.0
20260504232428 11 342 0.0 0.0 0.00 0.00 0.00 81 1002.0
20260504231925 11 342 0.0 0.0 0.00 0.00 0.00 79 1002.1
20260504231421 12 351 0.0 0.0 0.00 0.00 0.00 77 1002.0